When you browse on this site, cookies collect data to enhance your experience and personalize the content and advertising you see.
Visit our Privacy Policy to learn more. By continuing to use the site, you agree to this use of cookies and data.
  • In France
  • List of Countries
  • For 7 days
  • Water Temperature
  • Weather Map
  • Weather Widgets
  • user-avatar
    Login

    Hourly Weather Badulki

    Today, 20 October, Sunday

    Time Temperature Precipitation Wind Pressure Humidity
    00:00 +14°C° 0 mm 2 mps 745 mmHg 89%
    01:00 +14°C° 0 mm 2 mps 745 mmHg 88%
    02:00 +13°C° 0 mm 2 mps 745 mmHg 88%
    03:00 +13°C° 0 mm 2 mps 745 mmHg 88%
    04:00 +13°C° 0 mm 2 mps 745 mmHg 88%
    05:00 +13°C° 0 mm 2 mps 745 mmHg 86%
    06:00 +13°C° 0 mm 2 mps 746 mmHg 85%
    07:00 +13°C° 0 mm 2 mps 746 mmHg 83%
    08:00 +15°C° 0 mm 2 mps 746 mmHg 75%
    09:00 +17°C° 0 mm 2 mps 746 mmHg 67%
    10:00 +19°C° 0 mm 2 mps 746 mmHg 59%
    11:00 +21°C° 0 mm 2 mps 746 mmHg 55%
    12:00 +23°C° 0 mm 2 mps 746 mmHg 51%
    13:00 +24°C° 0 mm 2 mps 746 mmHg 47%
    14:00 +23°C° 0 mm 2 mps 746 mmHg 51%
    15:00 +21°C° 0 mm 2 mps 746 mmHg 56%
    16:00 +20°C° 0 mm 2 mps 746 mmHg 60%
    17:00 +19°C° 0 mm 2 mps 746 mmHg 63%
    18:00 +19°C° 0 mm 1 mps 746 mmHg 66%
    19:00 +18°C° 0 mm 1 mps 747 mmHg 69%
    20:00 +16°C° 0 mm 1 mps 747 mmHg 71%
    21:00 +16°C° 0 mm 1 mps 747 mmHg 72%
    22:00 +14°C° 0 mm 0 mps 747 mmHg 74%
    23:00 +15°C° 0 mm 1 mps 747 mmHg 74%

    Tomorrow, 21 October, Monday

    Time Temperature Precipitation Wind Pressure Humidity
    00:00 +15°C° 0 mm 1 mps 747 mmHg 75%
    01:00 +15°C° 0 mm 1 mps 747 mmHg 75%
    02:00 +15°C° 0 mm 1 mps 747 mmHg 76%
    03:00 +14°C° 0 mm 1 mps 747 mmHg 78%
    04:00 +14°C° 0 mm 1 mps 746 mmHg 79%
    05:00 +14°C° 0 mm 1 mps 747 mmHg 79%
    06:00 +14°C° 0 mm 1 mps 747 mmHg 79%
    07:00 +14°C° 0 mm 1 mps 747 mmHg 79%
    08:00 +16°C° 0 mm 1 mps 747 mmHg 72%
    09:00 +19°C° 0 mm 1 mps 748 mmHg 66%
    10:00 +20°C° 0 mm 1 mps 748 mmHg 60%
    11:00 +21°C° 0 mm 1 mps 748 mmHg 57%
    12:00 +22°C° 0 mm 1 mps 748 mmHg 54%
    13:00 +23°C° 0 mm 1 mps 749 mmHg 52%
    14:00 +22°C° 0 mm 1 mps 749 mmHg 56%
    15:00 +21°C° 0 mm 1 mps 749 mmHg 60%
    16:00 +20°C° 0 mm 1 mps 749 mmHg 64%
    17:00 +19°C° 0 mm 1 mps 749 mmHg 67%
    18:00 +18°C° 0 mm 1 mps 750 mmHg 70%
    19:00 +16°C° 0 mm 1 mps 750 mmHg 73%
    20:00 +15°C° 0 mm 0 mps 750 mmHg 75%
    21:00 +14°C° 0 mm 0 mps 750 mmHg 77%
    22:00 +14°C° 0 mm 0 mps 750 mmHg 79%
    23:00 +14°C° 0 mm 0 mps 751 mmHg 80%

    Day after tomorrow, 22 October, Tuesday

    Time Temperature Precipitation Wind Pressure Humidity
    00:00 +14°C° 0 mm 0 mps 751 mmHg 81%
    01:00 +13°C° 0 mm 0 mps 751 mmHg 82%
    02:00 +13°C° 0 mm 0 mps 751 mmHg 83%
    03:00 +14°C° 0 mm 1 mps 751 mmHg 83%
    04:00 +14°C° 0 mm 1 mps 751 mmHg 84%
    05:00 +14°C° 0 mm 1 mps 751 mmHg 84%
    06:00 +14°C° 0 mm 1 mps 751 mmHg 85%
    07:00 +14°C° 0 mm 1 mps 751 mmHg 85%
    08:00 +15°C° 0 mm 1 mps 752 mmHg 79%
    09:00 +18°C° 0 mm 1 mps 752 mmHg 74%
    10:00 +18°C° 0 mm 2 mps 752 mmHg 68%
    11:00 +19°C° 0 mm 2 mps 752 mmHg 66%
    12:00 +20°C° 0 mm 2 mps 751 mmHg 63%
    13:00 +21°C° 0 mm 3 mps 751 mmHg 61%
    14:00 +20°C° 0 mm 2 mps 751 mmHg 65%
    15:00 +19°C° 0 mm 2 mps 751 mmHg 69%
    16:00 +18°C° 0 mm 2 mps 750 mmHg 73%
    17:00 +17°C° 0 mm 2 mps 751 mmHg 77%
    18:00 +16°C° 0 mm 2 mps 751 mmHg 82%
    19:00 +15°C° 0 mm 2 mps 751 mmHg 86%
    20:00 +15°C° 0 mm 2 mps 751 mmHg 87%
    21:00 +14°C° 0 mm 2 mps 751 mmHg 89%
    22:00 +14°C° 0 mm 2 mps 751 mmHg 90%
    23:00 +14°C° 0 mm 2 mps 751 mmHg 89%

    23 October, Wednesday

    Time Temperature Precipitation Wind Pressure Humidity
    00:00 +13°C° 0 mm 2 mps 751 mmHg 89%
    01:00 +13°C° 0 mm 2 mps 751 mmHg 89%
    02:00 +12°C° 0 mm 2 mps 751 mmHg 89%
    03:00 +12°C° 0 mm 2 mps 752 mmHg 90%
    04:00 +10°C° 0 mm 2 mps 752 mmHg 90%
    05:00 +10°C° 0 mm 2 mps 752 mmHg 91%
    06:00 +11°C° 0 mm 1 mps 752 mmHg 91%
    07:00 +11°C° 0 mm 1 mps 752 mmHg 92%
    08:00 +12°C° 0 mm 1 mps 752 mmHg 85%
    09:00 +12°C° 0 mm 0 mps 752 mmHg 78%
    10:00 +13°C° 0 mm 0 mps 752 mmHg 72%
    11:00 +14°C° 0 mm 0 mps 751 mmHg 68%
    12:00 +16°C° 0 mm 1 mps 751 mmHg 65%
    13:00 +16°C° 0 mm 1 mps 751 mmHg 61%
    14:00 +16°C° 0 mm 1 mps 751 mmHg 64%
    15:00 +15°C° 0 mm 1 mps 750 mmHg 67%
    16:00 +14°C° 0 mm 1 mps 750 mmHg 70%
    17:00 +14°C° 0 mm 2 mps 750 mmHg 73%
    18:00 +13°C° 0 mm 2 mps 750 mmHg 76%
    19:00 +12°C° 0 mm 2 mps 750 mmHg 79%
    20:00 +12°C° 0 mm 2 mps 750 mmHg 80%
    21:00 +10°C° 0 mm 2 mps 749 mmHg 82%
    22:00 +10°C° 0 mm 2 mps 749 mmHg 84%
    23:00 +10°C° 0 mm 3 mps 749 mmHg 85%

    24 October, Thursday

    Time Temperature Precipitation Wind Pressure Humidity
    00:00 +10°C° 0 mm 3 mps 749 mmHg 86%
    01:00 +9°C° 0 mm 3 mps 749 mmHg 88%
    02:00 +9°C° 0 mm 3 mps 748 mmHg 89%
    03:00 +9°C° 0 mm 3 mps 748 mmHg 90%
    04:00 +9°C° 0 mm 3 mps 747 mmHg 91%
    05:00 +8°C° 0 mm 4 mps 747 mmHg 92%
    06:00 +8°C° 0 mm 4 mps 747 mmHg 93%
    07:00 +8°C° 0 mm 4 mps 746 mmHg 93%
    08:00 +11°C° 0 mm 4 mps 746 mmHg 87%
    09:00 +13°C° 0 mm 4 mps 746 mmHg 81%
    10:00 +15°C° 0 mm 5 mps 746 mmHg 74%
    11:00 +16°C° 0 mm 5 mps 746 mmHg 70%
    12:00 +19°C° 0 mm 5 mps 745 mmHg 65%
    13:00 +20°C° 0 mm 5 mps 745 mmHg 61%
    14:00 +19°C° 0 mm 4 mps 745 mmHg 64%
    15:00 +18°C° 0 mm 3 mps 744 mmHg 67%
    16:00 +17°C° 0 mm 3 mps 744 mmHg 70%
    17:00 +17°C° 0 mm 3 mps 744 mmHg 74%
    18:00 +16°C° 0 mm 3 mps 744 mmHg 77%
    19:00 +14°C° 0 mm 3 mps 744 mmHg 81%
    20:00 +14°C° 0 mm 2 mps 744 mmHg 81%
    21:00 +14°C° 0 mm 2 mps 744 mmHg 81%
    22:00 +14°C° 0 mm 2 mps 744 mmHg 81%
    23:00 +14°C° 0 mm 2 mps 745 mmHg 80%

    25 October, Friday

    Time Temperature Precipitation Wind Pressure Humidity
    00:00 +13°C° 0 mm 2 mps 745 mmHg 79%
    01:00 +13°C° 0 mm 2 mps 745 mmHg 77%
    02:00 +13°C° 0 mm 2 mps 745 mmHg 77%
    03:00 +13°C° 0 mm 2 mps 744 mmHg 76%
    04:00 +13°C° 0 mm 2 mps 744 mmHg 76%
    05:00 +13°C° 0 mm 2 mps 745 mmHg 76%
    06:00 +13°C° 0 mm 2 mps 745 mmHg 76%
    07:00 +12°C° 0 mm 2 mps 745 mmHg 76%
    08:00 +15°C° 0 mm 2 mps 745 mmHg 69%
    09:00 +17°C° 0 mm 2 mps 746 mmHg 61%
    10:00 +19°C° 0 mm 2 mps 746 mmHg 54%
    11:00 +20°C° 0 mm 2 mps 746 mmHg 50%
    12:00 +21°C° 0 mm 2 mps 746 mmHg 47%
    13:00 +23°C° 0 mm 2 mps 746 mmHg 43%
    14:00 +21°C° 0 mm 1 mps 746 mmHg 48%
    15:00 +20°C° 0 mm 1 mps 746 mmHg 52%
    16:00 +19°C° 0 mm 1 mps 746 mmHg 56%
    17:00 +18°C° 0 mm 1 mps 746 mmHg 59%
    18:00 +15°C° 0 mm 0 mps 746 mmHg 62%
    19:00 +14°C° 0 mm 0 mps 747 mmHg 65%
    20:00 +14°C° 0 mm 0 mps 747 mmHg 67%
    21:00 +13°C° 0 mm 0 mps 747 mmHg 68%
    22:00 +13°C° 0 mm 0 mps 747 mmHg 70%
    23:00 +13°C° 0 mm 0 mps 747 mmHg 72%
    Show more